Location: Bh?mavarapp?du
(16.7041°N, 80.6518°E)
Time: 06:47:59
(UTC+00:00)

ADEOS - Pass Details

Date: 21 April 2021
Orbit: 792 x 795 km, 98.9° (Epoch: 06 May)

Event Time Altitude Azimuth Distance (km) Brightness Sun altitude
Rises 23:06:54 0° 17° (NNE) 3,283 7.3 -17.1°
Reaches altitude 10° 23:09:14 10° 20° (NNE) 2,353 6.5 -16.6°
Maximum altitude 23:14:24 67° 102° (ESE) 855 3.9 -15.4°
Drops below altitude 10° 23:19:33 10° 185° (S) 2,349 5.8 -14.2°
Sets 23:21:53 0° 187° (S) 3,277 6.5 -13.7°
